1519779600.18,61833,5.06,71600.3,-23.13,-25.75,-25.87,0,*61
1519779601.42,61834,5.0,71594.3,-23.13,-25.71,-25.87,0,*62
1519779602.67,61835,5.06,71598.0,-23.13,-25.71,-25.87,0,*63
1519779603.91,61836,5.06,71600.5,-23.13,-25.75,-25.87,0,*64
1519779605.16,61837,5.06,71602.5,-23.13,-25.75,-26.03,0,*6A
1519779606.38,61838,5.06,71600.5,-23.13,-25.87,-26.03,0,*68
1519779607.61,61839,5.06,71602.8,-23.13,-25.87,-26.03,0,*69
1519779608.83,61840,5.06,71604.5,-23.13,-25.91,-26.03,0,*60
1519779610.04,61841,5.06,71600.3,-23.13,-25.91,-26.03,0,*61
1519779611.29,61842,5.06,71602.5,-23.09,-25.87,-25.97,0,*60
1519779612.51,61843,5.06,71602.3,-23.09,-25.91,-26.07,0,*6C
1519779613.73,61844,5.06,71600.0,-23.13,-26.07,-26.07,0,*6C
1519779614.96,61845,5.06,71600.8,-23.13,-26.03,-26.07,0,*69
1519779616.18,61846,5.06,71604.5,-23.13,-26.07,-26.07,0,*6E
1519779617.4,61847,5.06,71600.8,-23.13,-26.07,-26.07,0,*6F
1519779618.62,61848,5.06,71602.5,-23.13,-26.07,-26.07,0,*60
1519779619.86,61849,5.06,71602.0,-23.15,-26.07,-26.07,0,*67
1519779621.11,61850,5.06,71602.3,-23.15,-26.07,-26.07,0,*6F
1519779622.37,61851,5.06,71600.3,-23.15,-26.03,-26.07,0,*6A
1519779623.62,61852,5.06,71600.8,-23.15,-26.03,-26.07,0,*69
1519779624.88,61853,5.06,71596.3,-23.17,-26.07,-26.13,0,*6B
1519779626.13,61854,5.06,71602.5,-23.15,-26.07,-26.07,0,*6B
1519779627.38,61855,5.06,71602.0,-23.15,-26.03,-26.07,0,*6E
1519779628.64,61856,5.06,71602.0,-23.15,-26.03,-26.07,0,*6D
1519779629.89,61857,5.06,71600.3,-23.15,-26.03,-26.07,0,*6C
1519779631.15,61858,5.06,71600.3,-23.15,-26.03,-26.07,0,*63
1519779632.39,61859,5.06,71602.0,-23.15,-25.87,-25.87,0,*66
1519779633.61,61860,5.06,71602.8,-23.13,-25.87,-25.91,0,*6D
1519779634.83,61861,5.06,71602.8,-23.13,-25.87,-26.03,0,*64
1519779636.08,61862,5.06,71604.0,-23.15,-25.87,-25.91,0,*69
1519779637.32,61863,5.06,71604.0,-23.13,-25.71,-25.91,0,*67
1519779638.54,61864,5.06,71602.8,-23.13,-25.91,-26.03,0,*66
1519779639.76,61865,5.06,71602.3,-23.13,-25.91,-26.03,0,*67
1519779641.0,61866,5.06,71600.5,-23.13,-25.75,-25.87,0,*61
1519779642.23,61867,5.06,71602.8,-23.09,-25.87,-26.03,0,*69
1519779643.45,61868,5.06,71600.5,-23.13,-25.91,-26.07,0,*6E
1519779644.67,61869,5.06,71600.5,-23.13,-25.91,-26.03,0,*6B
1519779645.88,61870,5.06,71596.0,-23.13,-25.87,-26.07,0,*60
1519779647.16,61871,5.06,71600.8,-23.09,-25.81,-25.97,0,*66
1519779648.37,61872,5.06,71596.5,-23.13,-25.87,-25.91,0,*6E
1519779649.6,61873,5.06,71600.5,-23.13,-25.87,-26.03,0,*67
1519779650.85,61874,5.06,71600.0,-23.09,-25.87,-25.97,0,*65
1519779652.06,61875,5.06,71602.0,-23.13,-25.91,-26.07,0,*62
1519779653.29,61876,5.06,71598.8,-23.13,-26.03,-26.07,0,*69
1519779654.51,61877,5.06,71600.5,-23.13,-26.03,-26.07,0,*68
1519779655.74,61878,5.06,71600.0,-23.13,-26.03,-26.07,0,*67
1519779656.97,61879,5.06,71602.5,-23.13,-26.03,-26.07,0,*66
1519779658.18,61880,5.06,71602.5,-23.13,-26.07,-26.07,0,*64
1519779659.41,61881,5.06,71600.5,-23.13,-26.03,-26.07,0,*61
1519779660.63,61882,5.06,71596.0,-23.13,-26.03,-26.07,0,*62
1519779661.86,61883,5.06,71600.3,-23.09,-25.87,-26.03,0,*63
1519779663.08,61884,5.06,71600.3,-23.13,-26.07,-26.07,0,*60
1519779664.31,61885,5.06,71602.0,-23.13,-26.03,-26.07,0,*65
1519779665.53,61886,5.0,71598.8,-23.13,-26.03,-26.07,0,*66
1519779666.76,61887,5.06,71602.0,-23.13,-26.03,-26.03,0,*63
1519779667.99,61888,5.06,71596.8,-23.13,-26.03,-26.07,0,*68
1519779669.21,61889,5.06,71598.0,-23.13,-26.03,-26.07,0,*69
1519779670.44,61890,5.06,71602.3,-23.13,-26.03,-26.07,0,*61
1519779671.69,61891,5.06,71604.5,-23.15,-26.03,-26.07,0,*66
1519779672.92,61892,5.06,71600.8,-23.13,-26.03,-26.07,0,*63
1519779674.14,61893,5.06,71600.5,-23.13,-25.91,-26.03,0,*6E
1519779675.37,61894,5.06,71602.5,-23.13,-26.03,-26.07,0,*65
1519779676.58,61895,5.06,71600.0,-23.13,-25.91,-26.07,0,*6C
1519779677.8,61896,5.06,71600.5,-23.13,-26.07,-26.07,0,*63
1519779679.02,61897,5.06,71604.0,-23.13,-26.07,-26.07,0,*62
1519779680.24,61898,5.06,71606.0,-23.09,-26.07,-26.07,0,*66
1519779681.46,61899,5.06,71608.8,-23.13,-26.07,-26.07,0,*6C
1519779682.68,61900,5.06,71606.0,-23.13,-26.07,-26.07,0,*6D
1519779683.9,61901,5.06,71608.8,-23.13,-26.07,-26.23,0,*6A
1519779685.14,61902,5.06,71614.0,-23.13,-26.07,-26.17,0,*6E
1519779686.35,61903,5.06,71610.8,-23.13,-25.91,-26.07,0,*62
1519779687.58,61904,5.06,71606.0,-23.13,-25.87,-26.03,0,*66
1519779688.83,61905,5.06,71604.8,-23.13,-25.75,-26.03,0,*6A
1519779690.07,61906,5.06,71604.5,-23.13,-25.71,-25.87,0,*62
1519779691.35,61907,5.06,71602.5,-23.09,-25.71,-25.81,0,*6E
1519779692.59,61908,5.06,71602.5,-23.13,-25.75,-25.87,0,*68
1519779693.83,61909,5.06,71600.0,-23.13,-25.75,-25.91,0,*6E
1519779695.1,61910,5.06,71604.8,-23.15,-25.75,-25.91,0,*60
1519779696.34,61911,5.06,71604.5,-23.15,-25.87,-25.91,0,*6C
1519779697.56,61912,5.06,71610.3,-23.13,-25.87,-25.91,0,*69
1519779698.78,61913,5.06,71602.8,-23.13,-25.87,-25.91,0,*68
1519779699.99,61914,5.06,71600.8,-23.13,-25.87,-25.91,0,*6F
1519779701.24,61915,5.06,71604.5,-23.13,-25.75,-26.03,0,*6B
1519779702.46,61916,5.06,71604.0,-23.13,-25.87,-26.03,0,*65
1519779703.68,61917,5.06,71606.8,-23.13,-25.87,-26.07,0,*60
1519779704.9,61918,5.06,71604.8,-23.13,-25.91,-26.07,0,*68
1519779706.11,61919,5.06,71604.5,-23.13,-25.91,-26.07,0,*69
1519779707.33,61920,5.0,71602.3,-23.13,-25.87,-26.07,0,*64
1519779708.55,61921,5.06,71604.5,-23.13,-25.91,-26.03,0,*66
1519779709.8,61922,5.06,71604.5,-23.13,-25.97,-26.03,0,*63
1519779711.02,61923,5.06,71600.8,-23.13,-25.91,-26.07,0,*60
1519779712.23,61924,5.06,71606.3,-23.13,-25.91,-26.07,0,*67
1519779713.51,61925,5.06,71604.5,-23.09,-25.97,-25.97,0,*61
1519779714.76,61926,5.06,71606.0,-23.09,-25.81,-26.03,0,*6B
1519779715.98,61927,5.06,71604.5,-23.13,-25.87,-26.03,0,*67
1519779717.2,61928,5.06,71606.0,-23.13,-25.91,-26.03,0,*6F
1519779718.44,61929,5.06,71604.3,-23.09,-26.03,-26.03,0,*6D
1519779719.66,61930,5.06,71606.5,-23.13,-25.87,-26.07,0,*65
1519779720.93,61931,5.0,71604.5,-23.09,-25.81,-25.97,0,*63
1519779722.2,61932,5.06,71604.3,-23.09,-25.81,-25.97,0,*60
1519779723.42,61933,5.06,71606.0,-23.13,-25.87,-26.03,0,*62
1519779724.7,61934,5.06,71610.0,-23.09,-25.81,-25.97,0,*66
1519779725.94,61935,5.06,71610.5,-23.09,-25.65,-25.81,0,*6A
1519779727.16,61936,5.06,71600.3,-23.09,-25.49,-25.87,0,*61
1519779728.44,61937,5.06,71602.5,-23.09,-25.55,-25.81,0,*6B
1519779729.72,61938,5.06,71602.5,-23.09,-25.55,-25.71,0,*6B
1519779730.97,61939,5.0,71596.5,-23.09,-25.65,-25.71,0,*69
1519779732.21,61940,5.06,71602.3,-23.13,-25.71,-25.91,0,*67
1519779733.46,61941,5.06,71602.5,-23.09,-25.71,-25.87,0,*6A
1519779734.69,61942,5.06,71598.3,-23.09,-25.91,-26.03,0,*68
1519779735.91,61943,5.06,71600.8,-23.13,-25.87,-26.03,0,*65
1519779737.16,61944,5.06,71604.0,-23.09,-25.97,-26.03,0,*68
1519779738.42,61945,5.0,71598.8,-23.09,-25.97,-26.03,0,*69
1519779739.66,61946,5.06,71600.3,-23.13,-26.07,-26.17,0,*6E
1519779740.91,61947,5.06,71600.8,-23.09,-26.03,-26.17,0,*60
1519779742.13,61948,5.06,71602.3,-23.13,-26.07,-26.23,0,*67
1519779743.34,61949,5.06,71600.5,-23.13,-26.07,-26.23,0,*66
1519779744.56,61950,5.0,71602.3,-23.13,-26.07,-26.23,0,*6E
1519779745.78,61951,5.06,71600.5,-23.09,-26.03,-26.23,0,*60
1519779747.05,61952,5.0,71600.0,-23.13,-26.17,-26.29,0,*67
1519779748.36,61953,5.06,71604.8,-23.15,-26.17,-26.29,0,*60
1519779749.66,61954,5.06,71606.3,-23.15,-26.17,-26.29,0,*67
1519779750.93,61955,5.06,71608.8,-23.09,-26.13,-26.17,0,*62
1519779752.2,61956,5.06,71600.8,-23.13,-26.17,-26.17,0,*6E
1519779753.45,61957,5.0,71602.5,-23.13,-26.03,-26.17,0,*6A
1519779754.7,61958,5.06,71606.5,-23.09,-26.03,-26.13,0,*6A
1519779755.98,61959,5.0,71600.0,-23.09,-25.81,-25.97,0,*6D
1519779757.19,61960,5.06,71602.8,-23.13,-25.87,-25.91,0,*6C
1519779758.41,61961,5.06,71602.3,-23.13,-25.87,-26.07,0,*61
1519779759.63,61962,5.06,71606.0,-23.13,-25.91,-26.03,0,*61
1519779760.85,61963,5.06,71606.0,-23.13,-25.91,-26.07,0,*64
1519779762.1,61964,5.06,71606.5,-23.09,-25.97,-26.03,0,*6A
1519779763.35,61965,5.06,71602.0,-23.13,-26.03,-26.17,0,*6B
1519779764.6,61966,5.06,71604.3,-23.13,-26.03,-26.17,0,*68
1519779765.85,61967,5.06,71606.5,-23.09,-25.87,-26.13,0,*69
1519779767.07,61968,5.06,71600.8,-23.13,-25.87,-26.03,0,*6C
1519779768.28,61969,5.06,71602.3,-23.13,-25.91,-26.07,0,*6E
1519779769.5,61970,5.06,71600.8,-23.13,-25.91,-26.07,0,*66
1519779770.72,61971,5.06,71600.3,-23.13,-25.91,-26.07,0,*67
1519779771.94,61972,5.06,71600.5,-23.13,-26.03,-26.07,0,*6C
1519779773.19,61973,5.06,71602.0,-23.09,-25.97,-26.03,0,*6C
1519779774.41,61974,5.06,71602.0,-23.13,-26.07,-26.07,0,*6E
1519779775.67,61975,5.06,71604.0,-23.09,-26.03,-26.17,0,*61
1519779776.92,61976,5.06,71600.5,-23.13,-26.03,-26.17,0,*69
1519779778.14,61977,5.06,71602.8,-23.13,-26.07,-26.39,0,*60
1519779779.41,61978,5.06,71602.0,-23.13,-26.17,-26.29,0,*6F
1519779780.65,61979,5.06,71602.3,-23.13,-26.23,-26.29,0,*69
1519779781.92,61980,5.06,71602.3,-23.13,-26.17,-26.29,0,*68
1519779783.17,61981,5.06,71600.3,-23.13,-26.17,-26.39,0,*68
1519779784.44,61982,5.06,71604.8,-23.13,-26.17,-26.17,0,*67
1519779785.69,61983,5.0,71600.8,-23.15,-26.07,-26.23,0,*66
1519779786.96,61984,5.06,71604.5,-23.15,-26.07,-26.17,0,*66
1519779788.21,61985,5.06,71604.5,-23.13,-26.03,-26.17,0,*65
1519779789.46,61986,5.06,71600.8,-23.13,-26.03,-26.17,0,*66
1519779790.7,61987,5.06,71600.3,-23.13,-26.07,-26.17,0,*63
1519779791.94,61988,5.06,71602.0,-23.13,-26.07,-26.17,0,*6C
1519779793.19,61989,5.06,71602.3,-23.15,-26.07,-26.23,0,*6C
1519779794.46,61990,5.06,71604.8,-23.15,-26.07,-26.17,0,*63
1519779795.73,61991,5.0,71602.5,-23.15,-26.07,-26.17,0,*62
1519779797.01,61992,5.06,71594.0,-23.15,-26.03,-26.17,0,*65
1519779798.29,61993,5.06,71602.8,-23.15,-26.03,-26.17,0,*64
1519779799.56,61994,5.06,71596.5,-23.15,-26.07,-26.17,0,*67
1519779800.81,61995,5.06,71596.5,-23.17,-26.13,-26.23,0,*66
1519779802.08,61996,5.0,71596.0,-23.15,-26.07,-26.17,0,*65
1519779803.35,61997,5.06,71600.3,-23.15,-26.07,-26.17,0,*64
1519779804.63,61998,5.0,71598.8,-23.15,-26.17,-26.23,0,*6D
1519779805.87,61999,5.06,71602.8,-23.15,-26.23,-26.39,0,*60
1519779807.11,62000,5.0,71600.8,-23.15,-26.23,-26.45,0,*61
1519779808.32,62001,5.0,71602.8,-23.17,-26.23,-26.49,0,*6E
1519779809.62,62002,5.06,71600.5,-23.15,-26.29,-26.29,0,*63
1519779810.9,62003,5.06,71600.3,-23.17,-26.29,-26.33,0,*6B
1519779812.2,62004,5.06,71602.8,-23.15,-26.17,-26.29,0,*68
1519779813.45,62005,5.06,71602.3,-23.17,-26.29,-26.45,0,*6C
1519779814.75,62006,5.06,71600.0,-23.15,-26.17,-26.29,0,*6A
1519779816.0,62007,5.06,71600.3,-23.17,-26.29,-26.45,0,*6E
1519779817.3,62008,5.06,71600.8,-23.15,-26.17,-26.29,0,*64
1519779818.55,62009,5.06,71602.3,-23.17,-26.23,-26.33,0,*6B
1519779819.85,62010,5.06,71604.0,-23.15,-26.17,-26.29,0,*6D
1519779821.13,62011,5.0,71600.8,-23.15,-26.17,-26.39,0,*6D
1519779822.41,62012,5.0,71602.8,-23.15,-26.17,-26.39,0,*6E
1519779823.71,62013,5.0,71600.5,-23.15,-26.17,-26.29,0,*6E
1519779824.96,62014,5.06,71602.0,-23.17,-26.23,-26.29,0,*6C
1519779826.21,62015,5.06,71602.5,-23.15,-26.03,-26.23,0,*67
1519779827.43,62016,5.0,71596.5,-23.17,-26.07,-26.23,0,*62
1519779828.65,62017,5.06,71602.0,-23.17,-26.07,-26.23,0,*63
1519779829.93,62018,5.06,71600.5,-23.15,-26.07,-26.17,0,*69
1519779831.17,62019,5.06,71600.5,-23.17,-26.13,-26.23,0,*68
1519779832.42,62020,5.06,71600.5,-23.17,-26.07,-26.17,0,*60
1519779833.7,62021,5.06,71600.0,-23.17,-26.13,-26.29,0,*69
1519779834.95,62022,5.0,71602.8,-23.17,-26.13,-26.23,0,*60
1519779836.17,62023,5.06,71604.5,-23.17,-26.07,-26.23,0,*64
1519779837.42,62024,5.06,71604.5,-23.17,-25.91,-25.97,0,*63
1519779838.66,62025,5.06,71604.5,-23.15,-25.87,-25.91,0,*61
1519779839.93,62026,5.0,71600.8,-23.15,-25.75,-25.87,0,*68
1519779841.21,62027,5.06,71600.3,-23.15,-25.75,-25.91,0,*6E
1519779842.46,62028,5.0,71600.5,-23.17,-25.97,-26.07,0,*63
1519779843.7,62029,5.0,71600.3,-23.15,-25.91,-26.07,0,*66
1519779844.92,62030,5.0,71598.8,-23.13,-25.91,-26.07,0,*68
1519779846.16,62031,5.0,71604.0,-23.15,-25.91,-26.07,0,*6F
1519779847.42,62032,5.06,71600.5,-23.17,-25.97,-26.07,0,*68
1519779848.69,62033,5.06,71600.8,-23.15,-25.91,-26.13,0,*68
1519779849.94,62034,5.0,71598.8,-23.15,-25.91,-26.03,0,*6E
1519779851.19,62035,5.06,71602.8,-23.15,-25.87,-26.03,0,*68
1519779852.47,62036,5.0,71600.3,-23.15,-25.75,-26.03,0,*66
1519779853.71,62037,5.06,71604.5,-23.15,-25.91,-26.07,0,*69
1519779854.96,62038,5.06,71602.5,-23.15,-25.91,-26.03,0,*62
1519779856.22,62039,5.06,71602.5,-23.15,-26.03,-26.07,0,*6F
1519779857.46,62040,5.06,71598.8,-23.15,-25.87,-25.91,0,*62
1519779858.77,62041,5.0,71596.5,-23.15,-25.71,-25.75,0,*60
1519779860.07,62042,5.06,71600.3,-23.15,-25.75,-25.75,0,*67
1519779861.32,62043,5.06,71596.8,-23.15,-25.87,-25.87,0,*66
1519779862.54,62044,5.06,71602.0,-23.13,-25.87,-25.91,0,*60
1519779863.75,62045,5.06,71596.0,-23.13,-25.91,-26.03,0,*6E
1519779865.01,62046,5.06,71602.3,-23.09,-25.97,-26.03,0,*60
1519779866.23,62047,5.06,71596.8,-23.13,-26.03,-26.07,0,*60
1519779867.45,62048,5.0,71598.8,-23.13,-25.91,-26.03,0,*63
1519779868.68,62049,5.06,71604.3,-23.13,-26.03,-26.07,0,*6E
1519779869.9,62050,5.06,71600.3,-23.13,-25.87,-26.03,0,*6D
1519779871.12,62051,5.06,71600.5,-23.13,-25.91,-26.03,0,*6B
1519779872.35,62052,5.0,71598.8,-23.13,-25.87,-26.03,0,*6F
1519779873.57,62053,5.0,71602.0,-23.09,-25.87,-26.03,0,*65
1519779874.8,62054,5.06,71600.0,-23.09,-25.87,-26.03,0,*62
1519779876.03,62055,5.06,71604.3,-23.09,-26.03,-26.07,0,*68
1519779877.25,62056,5.0,71602.3,-23.13,-26.03,-26.07,0,*60
1519779878.5,62057,5.06,71604.3,-23.13,-26.07,-26.17,0,*64
1519779879.75,62058,5.06,71604.5,-23.09,-26.07,-26.29,0,*6D
1519779881.01,62059,5.06,71606.3,-23.13,-26.17,-26.17,0,*6B
1519779882.26,62060,5.06,71602.3,-23.13,-26.17,-26.23,0,*66
1519779883.53,62061,5.06,71602.0,-23.13,-26.17,-26.29,0,*6D
1519779884.8,62062,5.0,71600.5,-23.13,-26.17,-26.29,0,*6E
1519779886.04,62063,5.06,71602.3,-23.13,-26.23,-26.29,0,*68
1519779887.28,62064,5.0,71598.3,-23.13,-26.17,-26.23,0,*62
1519779888.53,62065,5.0,71596.8,-23.13,-26.07,-26.17,0,*65
1519779889.78,62066,5.0,71596.8,-23.09,-25.87,-26.13,0,*62
1519779891.02,62067,5.06,71598.8,-23.13,-26.03,-26.17,0,*63
1519779892.28,62068,5.06,71602.0,-23.13,-26.03,-26.13,0,*68
1519779893.53,62069,5.0,71598.5,-23.13,-26.03,-26.17,0,*6D
1519779894.75,62070,5.0,71598.3,-23.13,-25.87,-26.03,0,*6F
1519779895.97,62071,5.0,71598.8,-23.13,-25.87,-26.03,0,*6E
1519779897.19,62072,5.06,71600.3,-23.13,-25.91,-26.03,0,*6A
1519779898.41,62073,5.0,71598.8,-23.13,-25.91,-26.07,0,*6F
1519779899.63,62074,5.0,71602.8,-23.13,-26.03,-26.07,0,*60
1519779900.87,62075,5.0,71600.8,-23.09,-26.03,-26.03,0,*6E
1519779902.11,62076,5.06,71602.0,-23.13,-26.07,-26.17,0,*67
1519779903.35,62077,5.0,71600.0,-23.15,-26.07,-26.23,0,*67
1519779904.6,62078,5.06,71602.8,-23.15,-26.07,-26.23,0,*68
1519779905.87,62079,5.0,71602.3,-23.15,-26.07,-26.17,0,*6E
1519779907.12,62080,5.0,71602.5,-23.15,-26.07,-26.23,0,*6F
1519779908.39,62081,5.0,71598.3,-23.15,-26.07,-26.17,0,*69
1519779909.63,62082,5.0,71602.5,-23.15,-26.07,-26.23,0,*6D
1519779910.91,62083,5.06,71604.3,-23.15,-26.17,-26.23,0,*6D
1519779912.21,62084,5.0,71602.3,-23.15,-26.17,-26.17,0,*6D
1519779913.51,62085,5.0,71598.8,-23.15,-26.17,-26.17,0,*6C
1519779914.74,62086,5.06,71602.3,-23.15,-26.23,-26.23,0,*6F
1519779915.99,62087,5.0,71602.5,-23.17,-26.23,-26.29,0,*66
1519779917.26,62088,5.06,71604.5,-23.15,-26.17,-26.23,0,*66
1519779918.53,62089,5.06,71604.5,-23.15,-26.17,-26.23,0,*67
1519779919.81,62090,5.0,71598.8,-23.15,-26.17,-26.23,0,*6F
1519779921.11,62091,5.0,71598.8,-23.15,-26.17,-26.29,0,*64
1519779922.35,62092,5.06,71600.3,-23.15,-26.23,-26.39,0,*61
1519779923.63,62093,5.0,71604.5,-23.17,-26.29,-26.33,0,*62
1519779924.88,62094,5.0,71602.3,-23.17,-26.23,-26.33,0,*6F
1519779926.18,62095,5.06,71600.0,-23.15,-26.17,-26.17,0,*6D
1519779927.45,62096,5.06,71602.5,-23.15,-26.07,-26.17,0,*6F
1519779928.72,62097,5.06,71604.3,-23.15,-26.17,-26.23,0,*68
1519779929.94,62098,5.0,71600.0,-23.17,-26.23,-26.23,0,*62
1519779931.18,62099,5.0,71598.3,-23.17,-26.13,-26.23,0,*60
1519779932.43,62100,5.0,71602.8,-23.17,-26.13,-26.23,0,*61
1519779933.68,62101,5.06,71604.3,-23.17,-26.13,-26.23,0,*60
1519779934.95,62102,5.06,71602.0,-23.15,-26.07,-26.17,0,*63
1519779936.23,62103,5.0,71600.3,-23.17,-26.13,-26.33,0,*63
1519779937.5,62104,5.0,71600.8,-23.15,-26.07,-26.17,0,*65
1519779938.77,62105,5.06,71604.5,-23.17,-26.13,-26.29,0,*6E
1519779940.05,62106,5.06,71606.3,-23.15,-26.17,-26.23,0,*61
1519779941.35,62107,5.06,71604.0,-23.15,-26.17,-26.17,0,*67
1519779942.59,62108,5.0,71602.5,-23.17,-26.23,-26.29,0,*60
1519779943.84,62109,5.06,71602.5,-23.17,-26.23,-26.29,0,*61
1519779945.08,62110,5.0,71602.3,-23.17,-26.23,-26.29,0,*69
1519779946.36,62111,5.0,71602.8,-23.15,-26.17,-26.23,0,*67
1519779947.6,62112,5.0,71600.3,-23.17,-26.23,-26.29,0,*6B
1519779948.85,62113,5.0,71600.3,-23.17,-26.29,-26.23,0,*6A
1519779950.13,62114,5.0,71602.5,-23.17,-26.29,-26.29,0,*67
1519779951.37,62115,5.0,71602.3,-23.17,-26.23,-26.17,0,*61
1519779952.67,62116,5.0,71604.3,-23.15,-26.17,-26.17,0,*67
1519779953.97,62117,5.0,71598.0,-23.15,-26.17,-26.17,0,*66
1519779955.24,62118,5.06,71604.0,-23.15,-26.17,-26.23,0,*6E
1519779956.48,62119,5.0,71604.5,-23.15,-26.23,-26.39,0,*63
1519779957.79,62120,5.0,71604.3,-23.15,-26.17,-26.29,0,*6F
1519779959.03,62121,5.06,71600.8,-23.17,-26.13,-26.23,0,*62
1519779960.28,62122,5.06,71606.8,-23.17,-26.13,-26.23,0,*61
1519779961.53,62123,5.06,71606.0,-23.17,-26.13,-26.23,0,*60
1519779962.8,62124,5.06,71604.0,-23.15,-26.03,-26.17,0,*63
1519779964.05,62125,5.06,71606.5,-23.17,-26.13,-26.23,0,*66
1519779965.3,62126,5.0,71604.5,-23.17,-26.13,-26.23,0,*65
1519779966.57,62127,5.0,71604.0,-23.17,-26.13,-26.29,0,*6E
1519779967.82,62128,5.0,71606.5,-23.17,-26.23,-26.29,0,*62
1519779969.06,62129,5.0,71604.3,-23.17,-26.23,-26.29,0,*63
1519779970.31,62130,5.06,71606.8,-23.17,-26.29,-26.45,0,*6B
1519779971.56,62131,5.06,71606.8,-23.17,-26.23,-26.29,0,*6A
1519779972.83,62132,5.0,71604.5,-23.15,-26.07,-26.17,0,*60
1519779974.1,62133,5.0,71606.0,-23.15,-26.07,-26.17,0,*61
1519779975.35,62134,5.0,71602.5,-23.17,-26.07,-26.13,0,*60
1519779976.61,62135,5.06,71604.3,-23.15,-26.03,-26.07,0,*62
1519779977.89,62136,5.0,71606.3,-23.17,-26.13,-26.13,0,*67
1519779979.16,62137,5.06,71604.8,-23.15,-26.03,-26.17,0,*61
1519779980.39,62138,5.0,71602.5,-23.17,-26.07,-26.23,0,*6F
1519779981.63,62139,5.0,71602.5,-23.15,-26.07,-26.23,0,*6C
1519779982.9,62140,5.0,71604.3,-23.15,-26.17,-26.23,0,*63
1519779984.2,62141,5.06,71604.0,-23.15,-26.17,-26.17,0,*65
1519779985.48,62142,5.0,71600.3,-23.15,-26.07,-26.17,0,*67
1519779986.72,62143,5.0,71602.8,-23.17,-26.13,-26.23,0,*66
1519779987.97,62144,5.06,71604.8,-23.17,-26.07,-26.13,0,*67
1519779989.22,62145,5.06,71602.8,-23.15,-26.07,-26.07,0,*61
1519779990.47,62146,5.0,71600.5,-23.17,-26.07,-26.13,0,*65
1519779991.72,62147,5.06,71604.5,-23.17,-26.13,-26.23,0,*62
1519779992.99,62148,5.0,71602.8,-23.15,-26.07,-26.17,0,*6D
1519779994.24,62149,5.06,71606.0,-23.17,-26.13,-26.23,0,*6C
1519779995.49,62150,5.06,71608.0,-23.15,-26.03,-25.87,0,*6A
1519779996.77,62151,5.06,71604.5,-23.17,-26.13,-26.13,0,*66
1519779998.04,62152,5.0,71604.5,-23.15,-26.17,-26.07,0,*66
1519779999.29,62153,5.0,71602.8,-23.17,-26.23,-26.13,0,*67
1519780000.56,62154,5.0,71606.0,-23.15,-26.17,-26.07,0,*60
1519780001.84,62155,5.0,71604.0,-23.15,-26.17,-26.03,0,*65
1519780003.09,62156,5.0,71604.8,-23.17,-26.23,-26.13,0,*62
1519780004.33,62157,5.0,71600.5,-23.17,-26.23,-26.13,0,*63
1519780005.55,62158,5.0,71608.0,-23.17,-26.23,-26.23,0,*6F
1519780006.79,62159,5.0,71608.3,-23.17,-26.23,-26.13,0,*6D
1519780008.05,62160,5.0,71602.3,-23.15,-26.07,-26.03,0,*62
1519780009.32,62161,5.0,71606.3,-23.17,-26.13,-25.97,0,*6A
1519780010.58,62162,5.06,71606.0,-23.15,-26.07,-26.03,0,*60
1519780011.8,62163,5.0,71602.0,-23.17,-26.07,-26.07,0,*67
1519780013.08,62164,5.06,71606.8,-23.17,-26.13,-26.13,0,*60
1519780014.34,62165,5.0,71602.8,-23.15,-26.23,-26.17,0,*64
1519780015.63,62166,5.0,71602.0,-23.17,-26.33,-26.29,0,*69
1519780016.87,62167,5.0,71602.5,-23.17,-26.29,-26.23,0,*69
1519780018.09,62168,5.0,71606.0,-23.17,-26.23,-26.23,0,*6C
1519780019.39,62169,5.0,71604.5,-23.15,-26.17,-26.17,0,*6F
1519780020.67,62170,5.0,71600.8,-23.17,-26.29,-26.29,0,*65
1519780021.91,62171,5.0,71604.8,-23.17,-26.29,-26.23,0,*6E
1519780023.13,62172,5.0,71602.3,-23.17,-26.23,-26.23,0,*67
1519780024.37,62173,5.06,71604.3,-23.17,-26.23,-26.13,0,*65
1519780025.62,62174,5.0,71602.3,-23.17,-26.23,-26.13,0,*62
1519780026.84,62175,5.0,71602.0,-23.17,-26.23,-26.07,0,*66
1519780028.09,62176,5.0,71598.3,-23.15,-26.07,-26.03,0,*65
1519780029.34,62177,5.0,71602.0,-23.17,-26.13,-26.07,0,*67
1519780030.6,62178,5.0,71604.8,-23.15,-26.03,-26.03,0,*6F
1519780031.85,62179,5.06,71604.3,-23.17,-26.13,-26.07,0,*69
1519780033.1,62180,5.0,71602.0,-23.15,-26.07,-26.07,0,*68
1519780034.38,62181,5.06,71606.3,-23.17,-26.29,-26.13,0,*62
1519780035.59,62182,5.0,71602.0,-23.17,-26.23,-26.23,0,*68
1519780036.81,62183,5.0,71600.0,-23.17,-26.23,-26.23,0,*69
1519780038.05,62184,5.0,71604.0,-23.15,-26.23,-26.07,0,*6A
1519780039.27,62185,5.0,71602.5,-23.17,-26.23,-26.07,0,*69
1519780040.51,62186,5.0,71600.3,-23.17,-26.23,-26.13,0,*6F
1519780041.76,62187,5.0,71602.8,-23.17,-26.23,-26.13,0,*6E
1519780043.0,62188,5.0,71602.8,-23.17,-26.23,-26.13,0,*61
1519780044.22,62189,5.0,71604.0,-23.17,-26.23,-26.07,0,*65
1519780045.47,62190,5.0,71604.0,-23.15,-26.07,-26.07,0,*69
1519780046.72,62191,5.0,71604.5,-23.15,-26.07,-26.03,0,*6C
1519780048.03,62192,5.0,71602.5,-23.19,-26.13,-26.13,0,*67
1519780049.28,62193,5.0,71602.5,-23.17,-26.13,-26.07,0,*6D
1519780050.53,62194,5.0,71606.5,-23.15,-26.07,-26.03,0,*69
1519780051.78,62195,5.0,71600.5,-23.15,-26.07,-26.03,0,*68
1519780053.03,62196,5.0,71606.5,-23.15,-26.07,-26.07,0,*6F
1519780054.28,62197,5.0,71606.8,-23.17,-26.23,-26.13,0,*6F
1519780055.55,62198,5.0,71606.0,-23.15,-26.17,-26.07,0,*60
1519780056.77,62199,5.0,71602.3,-23.17,-26.23,-26.07,0,*64
1519780058.02,62200,5.0,71604.0,-23.15,-26.07,-26.07,0,*63
1519780059.3,62201,5.0,71602.0,-23.17,-26.13,-26.13,0,*60
1519780060.57,62202,5.0,71606.5,-23.15,-26.07,-26.13,0,*64
1519780061.85,62203,5.0,71602.8,-23.17,-26.13,-26.13,0,*62
1519780063.09,62204,5.0,71602.0,-23.17,-26.23,-26.13,0,*66
1519780064.37,62205,5.0,71604.0,-23.15,-26.17,-26.07,0,*67
1519780065.61,62206,5.0,71602.8,-23.17,-26.23,-26.13,0,*64
1519780066.89,62207,5.0,71606.5,-23.17,-26.13,-25.97,0,*69
1519780068.12,62208,5.06,71610.0,-23.17,-26.03,-25.91,0,*61
1519780069.37,62209,5.0,71606.8,-23.17,-26.13,-26.07,0,*6D
1519780070.65,62210,5.0,71606.8,-23.17,-26.13,-26.13,0,*60
1519780071.92,62211,5.0,71604.8,-23.17,-26.13,-26.13,0,*61
1519780073.2,62212,5.0,71600.8,-23.17,-26.13,-26.13,0,*62
1519780074.45,62213,5.0,71608.8,-23.17,-26.13,-26.07,0,*66
1519780075.72,62214,5.0,71600.0,-23.17,-26.13,-26.13,0,*64
1519780076.97,62215,5.0,71604.0,-23.15,-26.07,-26.03,0,*63
1519780078.23,62216,5.0,71604.0,-23.15,-26.07,-26.03,0,*60
1519780079.48,62217,5.0,71606.0,-23.17,-26.07,-26.13,0,*62
1519780080.76,62218,5.0,71600.8,-23.17,-26.13,-26.13,0,*68
1519780081.98,62219,5.0,71606.3,-23.17,-26.07,-26.07,0,*69
1519780083.23,62220,5.0,71604.0,-23.17,-26.13,-26.07,0,*66
1519780084.48,62221,5.0,71606.0,-23.15,-26.07,-26.03,0,*64
1519780085.73,62222,5.0,71600.5,-23.17,-26.13,-26.07,0,*64
1519780086.98,62223,5.0,71596.5,-23.17,-26.13,-26.07,0,*65
1519780088.21,62224,5.0,71602.8,-23.17,-26.07,-26.07,0,*67
1519780089.46,62225,5.0,71602.8,-23.15,-26.07,-26.03,0,*60
1519780090.74,62226,5.0,71602.8,-23.15,-26.17,-26.07,0,*66
1519780092.04,62227,5.0,71602.3,-23.19,-26.13,-25.97,0,*65
1519780093.29,62228,5.0,71600.8,-23.17,-26.13,-26.07,0,*6E
1519780094.57,62229,5.0,71604.3,-23.17,-26.13,-26.13,0,*6A
1519780095.8,62230,5.0,71600.3,-23.17,-26.07,-26.03,0,*66
1519780097.02,62231,5.0,71600.8,-23.17,-26.07,-26.07,0,*63
1519780098.28,62232,5.0,71600.5,-23.15,-26.03,-25.91,0,*6A
1519780099.53,62233,5.0,71604.8,-23.17,-26.07,-25.97,0,*6B
1519780100.75,62234,5.0,71604.0,-23.17,-26.07,-25.91,0,*6A
1519780101.97,62235,5.0,71606.5,-23.17,-25.87,-25.87,0,*67